Temp_Advection
nan nan nan nan nan nan nan nan nan nan nan nan nan nan nan nan nan nan nan nan nan nan nan nan nan nan nan nan nan nan nan nan nan nan nan nan nan nan nan nan nan nan nan nan nan nan nan nan nan
nan 0 -0 0 0 -0 0 0 -1 -0 -0 -0 -0 0 0 -0 0 0 0 0 0 0 -0 -0 -0 0 -0 -0 0 0 0 0 0 0 0 0 0 0 0 0 0 0 0 0 -0 0 0 0 nan
nan 0 -0 -0 0 0 0 -0 -0 0 0 0 -0 -0 0 -0 0 0 -0 0 0 0 -0 -0 -0 0 -0 -0 0 -0 0 0 0 0 0 0 0 0 0 0 0 0 0 -0 -0 -0 -0 -0 nan
nan -0 0 -0 -0 0 -0 -0 0 0 -0 0 0 -0 -0 0 -0 -0 0 0 0 0 0 0 0 0 0 0 0 0 0 0 0 0 0 0 0 0 0 0 -0 0 -0 -0 0 -0 -0 -0 nan
nan -0 0 0 -0 -0 -0 -0 -0 -0 0 -0 -0 0 -0 -0 -0 -0 -0 -0 -0 -0 0 1 1 0 0 0 0 0 0 0 0 0 0 0 0 0 0 0 -0 -0 -0 -0 0 0 -0 -0 nan
nan 0 -0 0 0 -0 0 0 -0 -0 -0 -0 -0 -0 0 0 0 -0 -0 -0 0 0 0 1 1 1 0 0 0 1 1 1 0 0 0 0 0 0 0 0 0 -0 -0 0 0 0 0 -0 nan
nan -0 0 0 -0 -0 -0 0 0 -0 -0 -0 -0 -0 -0 -0 0 0 0 0 0 0 0 0 1 0 0 1 1 1 1 0 0 0 0 0 0 0 0 0 0 0 0 0 0 0 0 0 nan
nan -0 -0 -0 -0 -0 -0 -0 -0 -0 0 0 -0 -0 -0 0 -0 0 0 0 0 0 1 0 0 1 1 1 1 0 0 0 0 -0 0 0 0 0 0 0 0 0 0 0 0 0 0 -0 nan
nan -0 -0 -0 -0 -0 -0 -0 -0 0 0 0 -0 0 0 0 0 -0 -0 0 0 0 0 0 0 0 0 0 0 0 0 0 -0 -0 0 0 0 0 0 0 0 0 0 0 0 0 0 0 nan
nan -0 -0 0 -0 0 0 -0 -0 0 0 -0 -0 -0 0 1 1 -0 -1 -0 -0 0 0 0 0 0 1 0 0 0 0 0 -0 -0 0 0 0 0 0 0 0 0 0 0 0 0 0 0 nan
nan -0 0 0 0 0 -0 -0 -0 -0 -0 -0 -0 0 1 0 -1 -0 0 -0 0 0 0 0 0 0 0 0 0 -0 -0 -0 -0 0 0 0 0 0 -0 0 0 0 0 0 0 0 0 0 nan
nan 0 -0 -0 0 -0 -0 -0 -0 0 -1 -0 0 0 0 -0 0 1 0 0 1 -0 -0 0 1 1 0 0 -0 -0 0 0 0 0 0 0 0 -0 -0 0 0 0 0 0 0 0 0 0 nan
nan -0 -0 -0 0 0 -0 -1 -0 -0 -1 0 -0 0 1 1 2 2 1 1 -0 -1 0 1 0 0 0 -0 -0 0 -0 -0 -0 0 0 0 -0 0 0 0 0 0 0 0 0 0 0 0 nan
nan -0 -0 -0 0 -0 -0 0 -0 -0 -0 0 0 0 0 1 2 0 0 0 -0 1 1 1 0 0 0 -0 -0 -0 -0 0 0 0 0 0 0 0 0 0 0 0 0 0 0 0 0 0 nan
nan -0 -0 -0 -0 -0 -0 0 -0 -0 -0 0 0 0 0 1 -0 -0 0 1 1 1 1 0 0 0 0 0 -0 -0 0 0 0 0 0 0 0 0 0 0 0 0 0 0 0 0 0 0 nan
nan 0 -0 -0 -0 0 0 -0 0 -0 -0 0 0 0 0 0 0 1 2 1 -0 -1 -1 0 0 1 0 -0 -0 0 1 0 0 0 0 0 0 0 0 0 0 0 0 0 0 0 0 0 nan
nan -0 0 -0 -0 -0 -0 -1 -0 0 -0 -0 -0 -0 0 0 0 -0 0 1 1 0 0 1 1 1 0 0 0 1 1 0 0 0 0 0 1 0 0 0 0 0 0 0 0 0 0 0 nan
nan 0 0 -0 -0 -0 -0 -0 -0 0 -0 -0 0 -0 -0 -0 -0 0 0 1 2 1 1 1 1 1 0 0 1 1 1 0 0 0 0 1 0 0 0 0 0 0 0 0 0 0 0 0 nan
nan 0 -0 -0 0 -0 -1 -0 -0 1 0 -1 0 -0 -1 -1 -0 -0 0 1 1 1 1 2 2 1 0 1 1 1 1 1 1 0 1 0 0 0 0 0 0 0 0 0 0 0 0 0 nan
nan -0 -0 -0 0 -0 -0 -0 -0 -0 0 0 -0 -0 -1 -1 -1 -0 -0 0 1 1 1 2 1 1 0 1 1 1 1 1 1 1 0 0 0 0 0 0 0 0 0 0 0 0 0 0 nan
nan -0 -0 -0 -0 -0 -0 -0 0 0 0 -0 -1 -1 -1 -1 -2 -1 -1 -0 1 1 2 2 1 -0 1 1 2 1 1 1 1 0 0 0 0 1 1 0 0 0 0 0 0 0 0 0 nan
nan -0 0 0 -0 -0 -0 -1 -0 0 0 0 -1 -1 -1 -1 -1 -1 -2 -2 -1 0 1 1 -0 0 1 3 2 1 2 2 1 1 1 1 1 1 0 0 1 0 0 0 0 0 0 0 nan
nan -0 0 -0 0 -0 -0 -0 -0 -0 -0 0 -0 -1 0 0 1 -0 -1 -1 -1 -0 0 0 0 1 2 3 2 2 2 2 1 1 1 0 0 0 0 0 0 0 0 0 0 0 0 0 nan
nan 0 -0 -0 0 -1 -0 0 -0 -0 -0 -0 -0 0 1 1 0 -0 -0 -0 -0 -0 0 0 1 1 1 1 -0 0 0 0 0 0 -0 -0 -0 -0 0 0 0 -0 0 0 0 0 -0 0 nan
nan 0 -0 0 -0 0 -0 -0 0 0 0 0 -0 -0 -0 -0 -0 -0 -0 -0 -0 0 0 0 0 -0 -0 -0 -0 -0 -0 0 -0 0 0 -0 -0 -0 0 0 0 -0 0 0 0 0 0 0 nan
nan 0 0 -0 -0 0 -0 -0 0 -0 0 0 -0 0 0 0 0 0 0 0 0 0 0 -0 -0 -0 0 0 0 -0 0 0 0 -0 -0 -0 -0 0 0 0 0 0 0 0 0 0 0 1 nan
nan 0 -0 0 0 -1 -0 0 0 0 -0 -0 -0 0 0 -0 -0 0 0 1 1 1 -0 -1 -0 0 0 0 1 1 1 0 -0 -0 -0 0 0 -0 0 0 0 0 -0 0 0 0 1 0 nan
nan -0 0 0 -0 -1 -1 -0 0 0 0 -0 -0 0 -0 -0 -1 -0 0 1 1 0 1 0 -0 -0 0 0 0 0 0 -0 0 0 0 0 0 0 0 0 -0 -0 0 0 1 1 0 0 nan
nan 0 0 0 0 -0 -1 0 -0 -0 -0 -0 -0 0 -0 0 -0 -1 -1 0 1 1 0 -0 0 1 0 0 1 -0 -1 -0 1 0 1 1 0 0 0 0 0 0 1 1 1 0 0 0 nan
nan nan nan nan nan nan nan nan nan nan nan nan nan nan nan nan nan nan nan nan nan nan nan nan nan nan nan nan nan nan nan nan nan nan nan nan nan nan nan nan nan nan nan nan nan nan nan nan nan
Wind_Speed
6 4 2 0 2 1 2 2 3 3 2 1 3 2 2 1 3 2 3 13 22 28 27 24 22 21 20 20 19 18 17 17 17 16 16 14 12 10 9 8 7 6 5 5 4 4 4 3 3
3 1 1 1 1 0 1 3 7 8 2 5 5 4 3 2 3 2 5 12 23 28 29 24 21 20 19 19 18 17 17 17 16 15 13 12 10 9 8 8 7 6 5 4 3 3 2 3 2
0 2 1 2 2 1 2 4 9 4 7 6 5 2 1 1 1 3 5 15 26 23 25 23 21 20 21 19 19 19 18 17 15 14 13 12 10 9 9 8 7 6 5 4 3 2 2 2 1
3 2 5 1 2 4 4 8 8 11 1 7 5 3 2 4 4 5 9 15 24 23 24 23 22 21 21 20 20 20 18 17 16 15 14 13 11 11 10 9 7 6 5 4 3 2 1 1 1
2 2 2 1 3 4 6 9 5 6 3 3 4 3 2 4 6 4 13 16 21 25 25 23 22 21 21 21 21 20 19 18 17 15 14 12 11 10 9 9 8 6 5 4 3 2 2 1 1
1 3 1 2 3 4 7 6 3 1 1 3 4 6 2 5 9 8 16 17 18 20 21 21 21 21 19 19 18 19 19 17 16 14 13 12 11 10 9 8 7 6 4 3 3 4 3 2 2
4 2 2 2 3 4 4 14 2 1 2 2 1 2 2 9 11 11 15 17 16 20 21 21 20 19 19 20 19 18 17 17 16 15 13 12 12 11 10 8 7 6 5 4 3 4 4 3 2
4 2 3 3 1 4 3 11 7 2 0 3 5 2 2 4 16 14 15 16 17 19 20 21 21 20 19 18 17 18 18 17 17 16 13 13 12 12 11 9 8 7 6 6 4 4 3 3 3
5 2 3 3 4 3 4 7 5 3 2 5 6 6 6 5 16 20 21 20 19 21 23 24 24 22 22 21 22 22 20 18 16 16 14 13 13 12 10 9 8 7 6 5 4 3 3 2 2
3 3 5 3 3 4 5 3 9 3 3 5 9 12 13 12 18 23 25 26 26 25 26 24 24 25 25 25 25 23 23 21 19 18 16 15 15 14 11 10 9 8 7 6 4 4 3 3 4
3 4 4 3 5 4 8 16 3 4 5 10 8 13 13 14 19 24 27 26 26 26 26 25 25 25 25 27 27 27 25 24 22 20 18 17 16 12 11 11 10 9 7 6 5 5 4 5 5
3 4 3 3 4 6 8 8 7 10 15 19 15 13 14 16 20 24 28 27 27 28 25 25 26 27 29 30 31 28 28 25 22 20 20 19 18 15 14 12 11 10 9 8 7 6 5 4 4
2 2 5 12 20 14 10 13 12 12 18 19 17 17 17 17 19 21 24 25 26 27 27 28 27 26 26 27 27 27 26 23 21 21 21 21 20 17 16 15 14 11 9 8 7 6 5 4 5
4 9 14 10 11 5 4 3 2 2 17 12 14 14 16 17 16 19 25 26 30 28 28 29 31 27 25 26 24 24 25 23 23 21 22 20 17 16 17 17 15 12 10 9 7 6 6 6 7
6 9 8 1 3 1 3 3 3 9 12 8 8 11 14 17 18 22 21 27 29 29 27 30 32 30 27 27 26 27 26 24 22 21 21 19 18 17 16 15 14 13 11 10 10 10 9 9 9
4 1 4 1 7 2 1 5 6 5 11 10 9 9 13 17 20 22 23 24 24 25 28 28 32 33 29 29 28 28 25 23 22 22 20 19 18 18 17 15 14 13 13 13 13 13 13 13 13
2 4 3 6 2 4 7 10 8 12 10 12 14 14 13 15 17 19 22 27 29 29 28 27 32 34 32 31 29 26 24 22 21 20 18 17 18 18 17 16 14 13 13 14 14 14 13 14 16
4 4 4 9 3 12 16 15 13 15 10 14 20 15 11 9 13 15 19 24 30 33 35 28 32 34 34 33 31 29 27 25 23 22 20 19 18 18 17 16 15 15 15 15 15 16 17 18 20
2 4 11 11 12 6 14 12 13 19 8 17 12 8 9 9 12 14 14 17 25 33 36 36 33 37 38 38 35 33 32 30 28 26 22 20 18 18 17 16 16 15 15 15 16 18 18 22 22
7 9 14 10 8 6 10 15 15 15 13 11 6 4 7 12 13 13 12 14 19 25 32 35 36 37 40 40 39 38 33 31 28 25 22 19 17 17 18 16 15 16 17 17 17 18 22 23 27
4 7 6 10 8 5 9 16 8 4 4 0 7 8 12 16 17 17 13 9 11 17 24 30 34 37 40 42 42 37 32 29 28 26 23 21 19 19 19 18 18 17 16 16 18 19 20 24 29
3 7 9 7 4 6 4 11 6 5 6 2 10 14 14 16 14 14 14 13 10 13 18 21 26 32 38 41 41 38 35 32 29 26 23 21 20 18 18 17 16 17 17 17 18 18 19 19 25
5 3 3 4 7 4 4 7 2 1 6 8 8 12 9 10 16 18 15 12 9 9 14 15 17 25 33 34 32 32 31 27 17 14 16 17 16 16 16 16 16 16 17 16 17 18 18 20 21
1 3 1 2 2 9 12 12 2 2 1 4 7 15 19 20 19 18 17 14 8 3 5 10 17 22 25 24 16 11 7 12 13 13 14 16 14 13 14 16 15 15 14 16 16 17 18 19 22
2 2 4 4 4 7 1 5 13 2 2 1 3 6 11 13 14 13 12 11 8 2 3 7 2 5 4 6 9 10 8 22 13 16 21 18 12 11 16 16 14 16 14 15 15 14 15 17 18
2 3 3 6 5 9 1 7 3 1 2 2 3 5 12 16 18 14 11 9 8 5 3 9 13 7 4 5 4 12 11 16 15 16 16 15 12 14 15 15 17 15 14 14 13 13 14 15 17
3 4 1 3 1 7 6 3 4 4 4 5 6 4 8 12 15 16 15 14 12 11 11 16 13 9 5 7 12 17 20 23 22 19 20 16 14 17 15 16 16 15 14 14 13 13 13 12 12
2 3 3 1 6 13 11 18 11 6 1 3 0 8 10 14 18 22 21 24 22 19 17 23 22 16 12 12 16 22 23 18 18 18 19 19 16 19 17 17 16 14 14 13 13 14 14 12 10
1 3 3 2 4 11 15 9 4 4 5 4 10 17 23 29 28 28 30 28 27 24 25 29 30 26 22 21 25 23 23 23 22 20 24 23 22 22 20 17 17 14 14 15 15 15 14 13 12
2 5 3 5 7 2 3 17 5 5 6 14 24 30 31 34 38 32 34 30 27 21 25 33 36 29 26 22 20 23 21 21 22 24 25 26 23 23 19 17 16 14 18 17 17 16 14 13 13
Wind_Direction
328 307 288 155 218 28 269 243 300 233 208 189 176 184 201 115 227 313 257 184 176 175 174 175 175 173 177 180 182 182 181 179 177 172 169 167 166 165 161 160 161 162 169 158 151 141 135 134 165
303 272 114 80 104 138 234 263 240 236 128 143 134 138 190 169 189 206 179 191 180 179 173 173 171 171 175 178 179 183 179 179 178 175 171 172 171 174 170 173 177 174 180 177 167 153 148 199 218
236 163 103 76 96 175 282 226 272 306 223 226 160 182 165 80 171 200 211 180 176 180 175 173 173 174 178 179 180 182 182 183 182 182 181 181 182 187 188 188 186 184 184 186 176 149 163 210 237
155 120 59 283 247 240 241 284 295 312 63 174 168 149 140 197 178 193 179 171 175 179 177 178 178 181 181 181 183 182 184 188 189 191 191 192 193 195 199 198 191 186 185 182 154 146 108 170 131
177 93 72 276 263 268 254 280 304 298 342 147 193 152 160 219 183 173 174 171 179 178 180 181 182 185 187 189 187 187 191 192 194 199 198 201 202 205 205 203 194 186 181 176 165 135 115 68 43
117 90 227 249 263 269 282 282 262 279 104 160 168 156 190 201 190 175 178 178 182 183 186 186 187 191 193 194 195 198 200 195 200 206 204 205 210 213 214 209 199 190 190 177 163 130 116 100 95
155 132 235 258 291 292 276 337 28 46 159 220 187 172 204 200 189 178 176 183 192 192 191 192 192 195 198 200 198 197 196 201 210 211 212 209 214 216 213 210 206 197 186 179 164 129 116 108 97
153 105 147 220 266 283 314 332 328 350 312 191 182 250 185 230 198 184 185 190 196 194 197 198 193 194 196 199 199 204 203 204 219 221 208 215 217 214 208 207 205 195 185 177 173 142 121 116 107
161 123 194 233 199 281 338 348 2 331 183 210 213 228 257 260 204 190 190 195 201 203 203 202 202 201 200 201 200 207 210 211 219 223 225 223 224 220 215 210 204 198 190 180 175 158 150 139 124
167 191 215 218 204 264 314 350 318 277 250 243 259 255 253 234 208 201 200 203 202 204 200 209 212 213 210 211 211 211 214 220 223 231 231 226 220 210 212 219 210 202 197 195 185 177 162 155 146
160 220 188 230 212 237 303 310 215 253 254 242 250 273 242 220 216 212 212 214 212 209 213 214 217 217 223 221 220 220 221 223 230 232 230 226 221 225 221 212 214 208 203 194 187 183 173 162 154
282 268 262 280 304 293 272 270 255 217 250 271 273 266 245 229 225 221 218 219 217 215 217 219 219 225 226 223 222 225 223 229 233 235 230 226 225 229 219 216 213 206 204 200 192 182 170 160 148
221 294 296 286 291 281 279 259 264 264 274 262 267 261 241 237 235 227 227 227 225 223 222 219 221 226 227 226 224 222 226 230 233 232 232 230 229 228 220 220 215 210 210 205 196 179 166 158 152
298 281 287 285 282 252 271 323 270 321 312 304 276 252 238 241 238 229 230 226 231 233 226 224 224 231 226 227 228 233 232 231 227 233 233 233 236 229 222 215 211 210 209 207 201 193 182 176 166
293 307 313 211 332 120 256 134 79 352 13 346 301 276 260 251 247 245 242 231 239 237 235 230 227 230 229 232 234 231 227 225 224 227 231 234 231 226 224 223 214 203 199 196 191 185 181 179 168
305 16 327 276 357 64 11 265 296 353 347 337 334 304 285 278 273 266 257 243 237 241 241 232 228 228 228 229 233 228 224 223 224 226 227 227 226 223 223 226 217 202 195 194 190 183 175 171 171
22 280 277 302 30 6 32 302 296 305 308 308 321 308 296 291 284 280 271 263 252 248 249 236 229 227 228 230 229 224 224 223 223 223 226 223 226 226 223 221 219 212 205 203 196 185 181 178 175
260 271 256 271 265 315 301 284 278 290 279 291 303 309 310 313 317 300 282 272 260 251 254 244 234 225 227 231 225 220 220 219 220 221 220 223 226 226 224 219 213 210 206 203 195 189 178 182 180
232 242 266 277 276 295 279 276 281 287 265 282 295 331 340 335 330 322 299 279 267 256 252 251 239 227 225 228 221 218 218 218 219 218 221 223 222 222 219 218 214 207 204 205 197 189 188 179 182
244 268 276 283 281 212 280 278 274 267 269 276 327 7 9 344 343 347 335 308 279 271 260 251 246 234 227 229 227 223 218 219 220 222 222 223 218 216 217 212 214 210 203 199 197 198 185 186 180
247 239 258 269 320 261 300 281 249 262 237 18 62 29 15 8 1 360 354 327 287 274 265 256 249 242 233 233 229 225 223 222 219 220 223 215 214 213 212 207 201 205 201 201 197 195 200 191 188
272 229 258 283 308 293 346 293 271 257 289 318 47 28 19 22 23 20 13 4 332 292 271 263 256 245 234 227 225 225 224 220 222 224 221 213 210 210 210 206 205 198 199 200 201 200 203 207 199
244 170 244 282 270 312 276 278 13 60 298 325 11 24 21 34 36 34 30 24 3 315 290 278 252 238 234 226 220 215 214 214 221 216 227 220 203 211 212 210 213 206 197 198 204 202 205 205 216
200 253 174 103 201 259 255 229 328 346 27 327 3 16 30 30 26 25 24 23 21 347 258 256 234 227 231 224 221 229 244 250 251 244 224 233 219 209 222 222 219 216 200 201 202 203 209 215 220
133 175 280 248 203 260 321 244 262 200 217 269 345 25 32 27 18 16 19 21 20 331 256 231 217 209 182 203 245 228 238 244 222 239 242 238 232 245 240 230 219 218 203 204 203 205 215 220 223
192 202 223 280 269 283 228 243 249 161 175 154 119 61 50 29 18 2 2 357 339 316 269 173 142 119 14 303 246 210 213 207 218 208 221 228 235 231 222 224 220 215 209 205 204 207 214 217 221
154 219 328 285 192 278 257 250 204 199 145 108 94 86 25 15 13 1 342 334 315 285 250 192 210 266 245 233 197 207 202 218 214 212 219 218 223 219 219 221 221 217 209 205 206 203 204 212 217
221 142 248 311 280 269 275 291 278 195 124 104 46 332 326 324 316 313 307 301 286 271 260 228 237 245 257 234 233 233 239 232 233 231 229 230 223 226 223 216 217 217 217 211 207 200 195 193 206
283 249 231 274 243 272 287 279 116 100 81 356 311 305 306 305 298 294 295 297 287 269 263 254 251 250 255 257 248 248 239 231 230 229 239 233 227 225 224 215 214 213 221 210 206 199 191 179 189
198 264 237 220 254 275 316 268 123 158 305 304 299 298 300 300 307 303 291 291 290 276 275 261 262 259 259 250 259 250 246 239 223 232 234 236 235 230 223 217 221 218 225 212 204 199 189 187 184
Height
1508 1507 1507 1507 1510 1510 1513 1506 1505 1501 1501 1500 1499 1499 1498 1499 1497 1501 1498 1498 1499 1502 1508 1511 1513 1515 1519 1523 1526 1528 1530 1532 1533 1534 1534 1535 1536 1537 1537 1539 1540 1540 1541 1542 1543 1543 1544 1544 1543
1507 1507 1508 1507 1510 1512 1507 1505 1500 1497 1498 1498 1499 1498 1499 1496 1498 1497 1498 1498 1501 1503 1504 1510 1514 1516 1520 1522 1524 1530 1530 1532 1534 1534 1535 1535 1536 1537 1537 1538 1539 1539 1541 1542 1542 1543 1544 1544 1544
1507 1507 1508 1511 1518 1511 1507 1500 1494 1495 1496 1497 1497 1497 1498 1498 1499 1499 1497 1498 1500 1506 1507 1510 1513 1516 1518 1522 1526 1528 1530 1532 1534 1535 1535 1535 1536 1537 1538 1538 1538 1539 1541 1541 1542 1542 1543 1543 1544
1507 1508 1511 1511 1514 1508 1503 1494 1495 1492 1492 1493 1494 1495 1497 1496 1496 1497 1497 1499 1502 1505 1509 1511 1513 1516 1518 1519 1524 1527 1530 1532 1534 1535 1536 1536 1537 1537 1538 1538 1538 1539 1540 1541 1541 1541 1542 1543 1544
1507 1507 1511 1513 1511 1506 1500 1496 1496 1492 1491 1493 1493 1493 1495 1494 1494 1496 1498 1499 1504 1506 1509 1511 1514 1516 1518 1520 1522 1524 1527 1530 1532 1533 1535 1536 1538 1538 1538 1538 1538 1539 1540 1541 1541 1541 1542 1542 1543
1507 1509 1513 1511 1509 1503 1497 1495 1495 1492 1491 1493 1493 1493 1494 1494 1493 1495 1498 1500 1504 1508 1510 1512 1514 1517 1520 1522 1525 1525 1525 1528 1530 1532 1533 1534 1536 1537 1538 1538 1537 1538 1539 1540 1540 1540 1541 1542 1542
1505 1507 1511 1514 1510 1503 1497 1494 1493 1491 1492 1492 1492 1492 1494 1492 1494 1495 1497 1500 1503 1506 1509 1512 1515 1517 1518 1520 1522 1525 1526 1528 1530 1531 1532 1533 1534 1534 1536 1537 1538 1537 1537 1539 1539 1539 1540 1541 1543
1504 1506 1514 1512 1509 1505 1497 1495 1492 1492 1492 1492 1492 1491 1492 1490 1492 1494 1497 1499 1502 1505 1508 1511 1514 1514 1518 1521 1524 1525 1525 1527 1529 1529 1530 1531 1532 1532 1533 1535 1537 1536 1537 1537 1539 1538 1539 1540 1542
1502 1507 1512 1505 1506 1497 1497 1495 1493 1492 1492 1491 1490 1489 1489 1489 1490 1492 1495 1497 1500 1502 1504 1507 1510 1513 1516 1518 1520 1521 1523 1524 1525 1527 1529 1530 1531 1532 1533 1533 1534 1536 1537 1537 1538 1538 1538 1539 1540
1501 1503 1502 1499 1499 1497 1496 1496 1494 1493 1491 1490 1488 1488 1487 1486 1487 1488 1490 1492 1496 1499 1502 1505 1507 1509 1511 1514 1516 1519 1520 1523 1523 1525 1526 1528 1529 1529 1530 1532 1533 1534 1535 1537 1537 1537 1538 1539 1539
1500 1497 1496 1496 1497 1496 1494 1492 1492 1492 1491 1488 1487 1485 1484 1484 1484 1484 1486 1488 1491 1494 1498 1501 1504 1506 1508 1510 1513 1515 1517 1519 1520 1522 1524 1525 1527 1528 1530 1529 1531 1532 1534 1535 1536 1537 1537 1538 1539
1500 1496 1498 1496 1495 1495 1493 1491 1488 1488 1486 1485 1483 1483 1482 1480 1480 1481 1483 1486 1488 1493 1497 1500 1502 1503 1503 1505 1508 1510 1513 1516 1518 1520 1520 1521 1524 1525 1527 1528 1528 1529 1531 1532 1534 1535 1536 1537 1538
1498 1496 1495 1493 1491 1490 1490 1488 1487 1484 1482 1480 1480 1479 1478 1478 1478 1479 1482 1485 1488 1489 1491 1496 1500 1503 1504 1506 1507 1509 1511 1513 1514 1516 1518 1519 1521 1521 1523 1525 1525 1526 1529 1530 1532 1533 1535 1536 1538
1497 1495 1491 1488 1486 1487 1487 1486 1485 1483 1480 1478 1478 1479 1479 1478 1479 1479 1479 1481 1482 1484 1490 1492 1493 1497 1500 1503 1505 1509 1510 1511 1511 1513 1515 1517 1519 1521 1522 1522 1522 1523 1524 1526 1529 1531 1532 1535 1537
1496 1492 1487 1485 1486 1485 1485 1484 1483 1481 1478 1477 1477 1478 1478 1478 1478 1477 1478 1478 1481 1483 1486 1490 1492 1494 1495 1500 1503 1503 1503 1505 1508 1511 1512 1514 1516 1519 1520 1522 1521 1520 1521 1522 1524 1527 1529 1532 1535
1495 1495 1492 1482 1483 1483 1481 1483 1478 1478 1478 1476 1476 1475 1475 1474 1474 1474 1475 1477 1478 1479 1481 1485 1488 1489 1491 1493 1496 1499 1502 1503 1505 1506 1507 1511 1513 1514 1516 1519 1520 1518 1519 1520 1520 1523 1525 1529 1533
1498 1494 1496 1486 1482 1481 1482 1482 1475 1477 1476 1474 1473 1472 1472 1472 1471 1471 1471 1471 1473 1474 1474 1478 1479 1485 1487 1489 1492 1496 1499 1501 1503 1505 1507 1506 1510 1512 1513 1515 1517 1519 1517 1518 1520 1520 1523 1526 1529
1494 1495 1494 1490 1482 1479 1478 1477 1473 1472 1472 1470 1468 1467 1467 1468 1468 1467 1466 1466 1467 1469 1469 1473 1475 1478 1482 1486 1487 1489 1491 1494 1497 1500 1500 1503 1505 1507 1510 1511 1513 1514 1515 1517 1518 1518 1519 1522 1525
1495 1495 1492 1484 1480 1483 1473 1472 1469 1465 1467 1465 1464 1465 1466 1463 1462 1462 1461 1462 1462 1462 1464 1467 1470 1473 1476 1478 1481 1483 1485 1488 1489 1491 1495 1497 1499 1502 1505 1508 1509 1510 1512 1515 1516 1517 1517 1519 1523
1494 1495 1489 1484 1479 1480 1471 1466 1462 1459 1458 1459 1463 1464 1462 1462 1461 1459 1457 1455 1456 1459 1461 1463 1466 1469 1472 1474 1476 1478 1482 1483 1485 1488 1492 1495 1495 1496 1500 1502 1506 1508 1508 1510 1513 1515 1516 1518 1520
1495 1495 1491 1487 1481 1476 1474 1456 1458 1454 1454 1457 1461 1462 1462 1459 1458 1457 1454 1453 1452 1453 1455 1457 1460 1464 1468 1470 1471 1475 1478 1482 1483 1485 1487 1486 1490 1494 1496 1497 1498 1503 1506 1507 1509 1511 1515 1515 1518
1496 1486 1487 1488 1488 1483 1480 1464 1456 1453 1454 1456 1461 1463 1463 1461 1459 1458 1455 1453 1452 1453 1453 1454 1457 1461 1463 1464 1465 1468 1473 1477 1481 1485 1485 1484 1485 1489 1492 1494 1498 1497 1501 1505 1507 1508 1511 1513 1515
1486 1484 1486 1486 1487 1490 1486 1484 1457 1459 1456 1458 1461 1463 1463 1461 1459 1456 1456 1455 1455 1454 1454 1454 1456 1457 1458 1459 1462 1464 1466 1472 1475 1479 1487 1486 1481 1484 1489 1491 1497 1497 1496 1500 1505 1505 1508 1509 1513
1478 1480 1483 1488 1486 1483 1470 1475 1453 1461 1463 1460 1462 1462 1459 1458 1457 1457 1455 1454 1454 1454 1454 1454 1453 1454 1456 1459 1462 1466 1469 1476 1474 1477 1480 1482 1483 1481 1486 1490 1492 1498 1495 1498 1500 1502 1505 1506 1509
1482 1484 1486 1481 1485 1475 1477 1477 1454 1461 1461 1462 1461 1462 1461 1460 1460 1459 1458 1455 1454 1454 1452 1452 1454 1455 1458 1461 1463 1464 1463 1470 1463 1476 1481 1479 1477 1479 1486 1490 1490 1496 1493 1497 1498 1499 1502 1504 1504
1485 1484 1488 1486 1479 1470 1476 1464 1453 1462 1462 1461 1461 1462 1462 1462 1463 1462 1461 1458 1457 1455 1454 1454 1454 1455 1456 1457 1455 1454 1451 1461 1460 1462 1475 1471 1474 1478 1482 1486 1489 1492 1492 1493 1494 1496 1500 1500 1503
1483 1486 1483 1484 1486 1482 1460 1457 1460 1461 1461 1462 1463 1462 1461 1461 1461 1461 1461 1459 1458 1458 1455 1452 1450 1449 1450 1451 1448 1453 1451 1453 1455 1459 1465 1465 1470 1475 1477 1482 1487 1490 1490 1490 1491 1491 1496 1500 1501
1477 1479 1487 1490 1491 1481 1458 1456 1452 1457 1460 1460 1460 1460 1459 1458 1457 1456 1455 1455 1452 1449 1450 1451 1450 1450 1449 1448 1450 1448 1451 1448 1452 1457 1460 1465 1466 1473 1474 1477 1480 1484 1486 1487 1489 1491 1491 1492 1498
1479 1480 1481 1486 1487 1484 1476 1453 1460 1461 1462 1460 1458 1456 1454 1451 1449 1447 1446 1445 1444 1444 1444 1444 1443 1445 1445 1445 1446 1446 1447 1448 1449 1451 1459 1462 1465 1469 1474 1474 1475 1476 1482 1485 1488 1488 1488 1487 1494
1476 1478 1480 1483 1484 1488 1493 1453 1456 1458 1459 1457 1454 1451 1448 1445 1443 1440 1438 1438 1438 1439 1439 1439 1439 1439 1441 1441 1444 1442 1444 1445 1445 1448 1454 1459 1460 1466 1468 1470 1473 1473 1480 1483 1484 1485 1484 1488 1489